{"data":{"norad_id":65175,"intl_designator":"2025-175B","name":"STARLINK-34949","alt_names":[],"object_type":"PAYLOAD","status":"ACTIVE","operator":null,"country":"US","launch_date":"2025-08-14","launch_site_code":"AFWTR","launch_vehicle":null,"mission":null,"orbit_class":"UNKNOWN","rcs_meters":null,"size_class":null,"mass_kg":null,"dimensions":null,"purposes":["comms"],"wikipedia_slug":null,"has_3d_model":false,"image_url":null,"decayed_at":null,"tle_current":{"epoch":"2026-09-20T21:08:58.017984Z","epoch_age_seconds":87338,"freshness":"FRESH","line1":"1 65175U 25175B   26263.88122706  .00019088  00000+0  59214-3 0  9996","line2":"2 65175  97.2831 132.8889 0001598  92.7626 267.3800 15.33441704 62208","mean_motion":15.33441704,"eccentricity":0.0001598,"inclination_deg":97.2831,"raan_deg":132.8889,"arg_perigee_deg":92.7626,"mean_anomaly_deg":267.38,"bstar":0.00059214,"rev_number":6220,"period_min":93.90640650008,"perigee_km":464.45935941379,"apogee_km":466.64660273174,"semimajor_km":6843.6899810728,"source":"CELESTRAK","updated_at":"2026-09-21T09:00:35.527429Z"}}}